Zurück zum Katalog

STARLINK-34228

AktivKommunikationVLEO
NORAD 64171·PAYLOAD·🇺🇸 United States

Gestartet May 28, 2025 von Cape Canaveral Space Force Station

Loading…

Nächste Überflüge (nächste 24 Stunden)

TLE

AktuellSource: CelesTrak SupGP

Epoche: Sep 14, 2026, 23:11 UTC

1 64171C 25113B   26257.96645833  .00048298  00000+0  15533-2 0  2573
2 64171  53.1568 290.1710 0001150  99.4995 112.0413 15.31673581    14

Verfolge STARLINK-34228 in Echtzeit mit AllMySat

Download on the App Store